Search your local weather  

 

Hazardous Weather Conditions

Heat Advisory issued July 15 at 4:19PM EDT until July 17 at 9:00PM EDT
Heat Advisory issued July 15 at 7:24PM EDT until July 17 at 9:00PM EDT
Heat Advisory issued July 16 at 3:22AM EDT until July 17 at 9:00PM EDT
Heat Advisory issued July 16 at 5:32PM EDT until July 17 at 9:00PM EDT
Heat Advisory issued July 17 at 3:47AM EDT until July 17 at 8:00PM EDT
Air Quality Alert issued July 17 at 10:06AM EDT
Severe Thunderstorm Watch issued July 17 at 12:58PM EDT until July 17 at 8:00PM EDT

Current Conditions: NEW YORK, NEW YORK

Clear


89.1 F

Last Updated on Jul 17 2024, 02:51 PM EDT
Humidity: 57%
Wind Speed: mph
Barometer: 29.81 in
Dewpoint: 72.0 F
Visibility: 10.00 mi
Precip: --
Heat Index: 96.1 F
Wind Chill: NA
Current conditions at:

NYC/CENTRAL PARK (KNYC)

Lat: 40.77 Lon: -73.98

active severe weather and emergency alerts image weather storm and storm spotter reports image weather observation monitoring service image
Active
Alerts
Storm Reports Weather
Monitoring

5 Day Forecast for NEW YORK, NEW YORK (10001)

Wednesday

T-storms


High 90 °F
Wednesday
Night
T-storms


Low 74 °F
Thursday

Mostly Cloudy

High 89 °F
Thursday
Night
Partly Cloudy

Low 69 °F
Friday

Mostly Sunny

High 88 °F
Friday
Night
Mostly Clear

Low 69 °F
Saturday

Partly Sunny

High 89 °F
Saturday
Night
Mostly Cloudy

Low 72 °F
Sunday

Partly Sunny

High 91 °F

Sign-up For Email & Text Message Weather Alert Notification Services



Advertise Here

Observation History for NEW YORK, NEW YORK


Time Wind
(mph)
Vis
(mi)
Weather Precip (in) Temperature (F) Relative
Humidity
Wind
Chill
(F)
Heat
Index
(F)
Pressure
Air Dwpt altimeter
(in)
sea level
(mb)
02:51 PM EDT 10.00 Clear -- 89.1 72.0 57% NA 96.1 29.81 1009.5
01:51 PM EDT 0.0 10.00 Clear -- 89.1 70.0 53% NA 94.3 29.83 1010.2
12:51 PM EDT 0.0 10.00 NULL -- 89.1 69.1 52% NA 93.7 29.85 1010.8
11:51 AM EDT 0.0 10.00 Clear -- 86.0 70.0 59% NA 90.7 29.87 1011.5
10:51 AM EDT 0.0 10.00 Mostly Clear -- 82.0 70.0 67% NA 85.8 29.89 1012.2
09:51 AM EDT 3.4 10.00 Mostly Cloudy Trace 80.1 70.0 71% NA 83.3 29.89 1012.2
08:51 AM EDT 3.4 10.00 Light Rain Trace 80.1 68.0 67% NA 82.6 29.90 1012.5
07:51 AM EDT 0.0 10.00 Partly Cloudy -- 80.1 66.9 64% NA 82.4 29.88 1011.9
06:51 AM EDT 0.0 10.00 Clear -- 79.0 66.9 67% NA 79.7 29.86 1011.2
05:51 AM EDT 5.8 10.00 Clear -- 79.0 66.0 65% NA 79.7 29.85 1010.8
04:51 AM EDT 4.7 10.00 Clear -- 80.1 66.9 64% NA 82.4 29.84 1010.5
03:51 AM EDT W 4.7 10.00 Clear -- 78.1 68.0 71% NA 79.0 29.84 1010.5
02:51 AM EDT 8.1 10.00 Clear -- 79.0 66.9 67% NA 79.7 29.85 1010.8
01:51 AM EDT 6.9 10.00 Mostly Clear -- 79.0 66.9 67% NA 79.7 29.86 1011.2
12:51 AM EDT 6.9 10.00 Mostly Clear -- 79.0 66.9 67% NA 79.7 29.86 1011.2
11:51 PM EDT 6.9 10.00 Clear -- 81.0 66.9 62% NA 83.3 29.86 1011.2
10:51 PM EDT 5.8 10.00 Clear Trace 84.0 66.0 55% NA 86.2 29.84 1010.5
09:51 PM EDT W 9.2 10.00 Light Rain Trace 86.0 64.9 50% NA 87.8 29.81 1009.5
08:51 PM EDT 10.00 Clear -- 87.1 66.0 50% NA 89.4 29.81 1009.2
07:51 PM EDT 10.00 Clear -- NULL 66.0 % NA NA 29.78 1008.5
06:51 PM EDT 10.00 Mostly Cloudy -- 91.9 69.1 47% NA 97.0 29.74 1007.1
05:51 PM EDT 4.7 10.00 Clear -- 91.0 69.1 49% NA 95.9 29.73 1006.8
04:51 PM EDT 5.8 10.00 Partly Cloudy -- 90.0 71.1 54% NA 96.4 29.74 1007.1
03:51 PM EDT 10.00 Mostly Clear -- 91.0 69.1 49% NA 95.9 29.76 1007.8

Regional Weather Observation

NYC/CENTRAL PARK (KNYC)

Clear
89.1 F

NYC/LA GUARDIA (KLGA)

Partly Cloudy
88.0 F

NYC/JFK ARPT (KJFK)

Mostly Cloudy
82.0 F

TETERBORO (KTEB)

Clear
90.0 F

CALDWELL (KCDW)

Clear
93.0 F

MANHATTAN/DWNTWN (KJRB)

Clear
89.1 F

Advertise Here


Advertise Here